Chicopee, MA

1:02 PM EDT on March 27, 2017 (GMT -0400)
Westover Air Reserve Base / Metropolitan Airport

Weather History for KCEF - November, 2013

Change the Weather History Date:

Monday, November 4, 2013

  Actual Average Record
Temperature  
Mean Temperature 34 °F -  
Max Temperature 43 °F 51 °F 69 °F (2005)
Min Temperature 23 °F 32 °F 19 °F (1998)
Degree Days  
Heating Degree Days 32    
Moisture  
Dew Point 16 °F    
Average Humidity 56    
Maximum Humidity 90    
Minimum Humidity 31    
Precipitation  
Precipitation 0.00 in - - ()
Sea Level Pressure  
Sea Level Pressure 30.64 in    
Wind  
Wind Speed 5 mph (NNE)    
Max Wind Speed 13 mph    
Max Gust Speed -    
Visibility 10 miles    
Events      
Averages and records for this station are not official NWS values.
T = Trace of Precipitation, MM = Missing Value Source: NWS Daily Summary

Daily Weather History Graph

Daily Weather History Graph

Search for Another Location

Airport or City:

Trip Planner

Search our weather history database for the weather conditions in past years. The results will help you decide how hot, cold, wet, or windy it might be!

Date:

Astronomy

Nov. 04, 2013 Rise Set
Actual Time 6:27 AM EST 4:39 PM EST
Civil Twilight 5:57 AM EST 5:09 PM EST
Nautical Twilight 5:24 AM EST 5:42 PM EST
Astronomical Twilight 4:51 AM EST 6:14 PM EST
Moon 7:35 AM EST (11/4) 5:40 PM EST (11/4)
Length of Visible Light 11h 11m
Length of Day
10h 12m
New Moon, 2% of the Moon is Illuminated
Nov 4
New Moon
Nov 10
First Quarter
Nov 17
Full
Nov 25
Last Quarter
Dec 2
New

Hourly Weather History & Observations

Time (EST) Temp. Windchill Dew Point Humidity Pressure Visibility Wind Dir Wind Speed Gust Speed Precip Events Conditions
12:58 AM 28.9 °F 22.8 °F 15.1 °F 56% 30.50 in 10.0 mi NNE 5.8 mph - N/A   Clear
1:58 AM 28.9 °F 21.9 °F 15.1 °F 56% 30.53 in 10.0 mi North 6.9 mph - N/A   Clear
2:58 AM 25.9 °F - 14.9 °F 63% 30.53 in 10.0 mi NE 2.3 mph - N/A   Clear
3:58 AM 27.9 °F 21.5 °F 14.7 °F 58% 30.55 in 10.0 mi ENE 5.8 mph - N/A   Clear
4:58 AM 24.4 °F 16.5 °F 14.7 °F 67% 30.58 in 10.0 mi NE 6.9 mph - N/A   Clear
5:58 AM 25.7 °F 18.0 °F 14.9 °F 64% 30.60 in 10.0 mi NNE 6.9 mph - N/A   Clear
6:58 AM 27.7 °F 20.4 °F 16.0 °F 62% 30.63 in 10.0 mi NNE 6.9 mph - N/A   Clear
7:58 AM 31.3 °F 21.6 °F 15.8 °F 53% 30.65 in 10.0 mi NE 12.7 mph - N/A   Clear
8:58 AM 34.3 °F 25.9 °F 15.4 °F 46% 30.66 in 10.0 mi NNE 11.5 mph - N/A   Clear
9:58 AM 36.9 °F 31.4 °F 14.9 °F 41% 30.66 in 10.0 mi North 6.9 mph - N/A   Clear
10:58 AM 38.3 °F 33.2 °F 14.9 °F 39% 30.67 in 10.0 mi North 6.9 mph - N/A   Clear
11:58 AM 40.6 °F 36.7 °F 15.6 °F 36% 30.65 in 10.0 mi North 5.8 mph - N/A   Clear
12:58 PM 42.3 °F 38.6 °F 13.5 °F 31% 30.64 in 10.0 mi NNW 5.8 mph - N/A   Clear
1:58 PM 43.0 °F - 15.6 °F 33% 30.63 in 10.0 mi NNE 2.3 mph - N/A   Clear
2:58 PM 42.6 °F 39.0 °F 14.9 °F 33% 30.64 in 10.0 mi NW 5.8 mph - N/A   Clear
3:58 PM 41.2 °F 37.3 °F 14.7 °F 34% 30.66 in 10.0 mi NNW 5.8 mph - N/A   Partly Cloudy
4:58 PM 37.0 °F - 16.0 °F 42% 30.66 in 10.0 mi Variable 1.2 mph - N/A   Clear
5:58 PM 32.5 °F - 18.9 °F 57% 30.67 in 10.0 mi NE 2.3 mph - N/A   Clear
6:58 PM 27.9 °F - 19.8 °F 72% 30.68 in 10.0 mi Calm Calm - N/A   Clear
7:58 PM 26.1 °F - 19.6 °F 76% 30.69 in 10.0 mi North 2.3 mph - N/A   Scattered Clouds
8:58 PM 25.5 °F - 19.0 °F 76% 30.69 in 10.0 mi NE 1.2 mph - N/A   Clear
9:58 PM 25.5 °F - 19.4 °F 78% 30.70 in 10.0 mi Calm Calm - N/A   Partly Cloudy
10:58 PM 24.1 °F - 20.8 °F 87% 30.71 in 10.0 mi ENE 1.2 mph - N/A   Clear
11:58 PM 23.2 °F - 20.7 °F 90% 30.72 in 10.0 mi ENE 2.3 mph - N/A   Mostly Cloudy